Regional Weather Roundup
Issued by NWS Newport/Morehead, NC

Current Version | Previous Version | Graphics & Text | Print | Product List | Glossary Off
Versions: 1 2 3 4 5 6 7 8 9 10 11 12 13 14 15 16 17 18 19 20 21 22 23 24 25 26 27 28 29 30 31 32 33 34 35 36 37 38 39 40 41 42 43 44 45 46 47 48 49 50

000
ASUS42 KMHX 202013
RWRMHX
WEATHER ROUNDUP FOR EASTERN NORTH CAROLINA
NATIONAL WEATHER SERVICE NEWPORT/MOREHEAD CITY NC
300 PM EST FRI JAN 20 2017

NOTE: "FAIR" INDICATES FEW OR NO CLOUDS BELOW 12,000 FEET
WITH NO SIGNIFICANT WEATHER AND/OR OBSTRUCTIONS TO VISIBILITY

NCZ015>017-031-032-045>047-102-103-202100-
NORTH COAST

CITY           SKY/WX    TMP DP  RH WIND       PRES   REMARKS
EDENTON        DRIZZLE   53  51  90 CALM      29.87R
ELIZABETH CITY LGT RAIN  50  48  93 E10       29.86F
KITTY HAWK     NOT AVBL
MANTEO         CLOUDY    50  50  99 E9        29.87S

$$

NCZ045>047-081-094-103-104-202100-
CENTRAL COAST

CITY           SKY/WX    TMP DP  RH WIND       PRES   REMARKS
FRISCO         LGT RAIN  62  57  83 S7        29.84F

$$

NCZ095-097-098-100-101-202100-
SOUTHERN COAST

CITY           SKY/WX    TMP DP  RH WIND       PRES   REMARKS
BEAUFORT       CLOUDY    67  62  84 SW9       29.84R
CEDAR ISLAND   NOT AVBL
JACKSONVILLE   CLOUDY    72  61  68 SW9       29.82F
PINEY ISLAND   CLOUDY   N/A N/A N/A SW3       29.83S
WILMINGTON     MOSUNNY   74  61  63 SW13      29.83S


$$

NCZ011>013-027>030-043-044-078>080-089-090>093-098-202100-
COASTAL PLAIN

CITY           SKY/WX    TMP DP  RH WIND       PRES   REMARKS
AHOSKIE        RAIN      49  48  97 CALM      29.86F
CLINTON        CLOUDY    71  60  67 W10       29.83S
ELIZABETHTOWN  PTSUNNY   72  59  62 W7        29.82F
GOLDSBORO      PTSUNNY   69  60  73 W3        29.81F
GREENVILLE     CLOUDY    61  54  77 CALM      29.87S
HAVELOCK       CLOUDY    72  62  71 SW7       29.84R
KENANSVILLE    CLOUDY    70  59  68 SW5       29.83F
KINSTON        PTSUNNY   68  57  68 SW3       29.84F
NEW BERN       CLOUDY    69  57  65 CALM      29.84S
RICHLANDS      CLOUDY    72  61  68 W3        29.83F
ROCKY MOUNT    CLOUDY    55  53  93 N5        29.86R
WASHINGTON     PTSUNNY   61  52  72 N3          N/A
WHITEVILLE     PTSUNNY   74  60  61 W3        29.81F

$$

AMZ130-135-150-152-154-156-158-170-250-252-270-ANZ085-086-088-633-658-670-202100-
MARINE OBSERVATIONS

STATION/POSITION TIME  TEMP    WIND        PRES    WAVE   SWELL
                       AIR SEA DIR/SP/G            HT/PER HT/PER
                 (UTC) (F)     (DEG/KT/KT) (MB)    (FT/S) (FT/S)
CHESAPEAKE LIGHT NOT AVBL
64 E VA BEACH    1950   54 58   40/ 10/ 12 1011.9    5/13   5/13
DUCK             1942   47 45   50/ 13/ 14 1010.8
2 E DUCK         2000      45                N/A     4/13   2/13
OREGON INLET     1942   51 49  340/ 10/ 15 1011.7
13E OREGON INLT  NOT AVBL
HATTERAS CG      1942   62 55  160/  5/  9 1009.9
DIAMOND BUOY     1950   71 76  180/ 19/ 23 1009.9    5/11   3/11
CAPE LOOKOUT     2000   66     240/  9/ 12 1010.1
BEAUFORT LAB     1942   67 51  250/  6/ 10 1009.2
30 SE NEW RVR IN 1908   65 66  240/  8/ 10 1010.7
30 SE NEW RVR IN 1943      66                N/A     4/13   2/13
27 SE WRIGHTSVLE 1908   70 71  250/ 12/ 16 1010.3
5 SE WRIGHTSVLE  1908   59     190/  4/  6 1010.3
225 S CAPE HAT   1950   71 70  160/ 10/ 12 1012.6    6/14   5/14
41 SE CHARLESTON 1850   71 71  230/ 17/ 19 1010.8    3/ 4   2/ 8

$$



USA.gov is the U.S. government's official web portal to all federal, state and local government web resources and services.